www.pogodaiklimat.ru

Погода и климат >> Архив погоды >> Китай >> Хэйлунцзян >> Тайлай


ПОГОДА в Тайлае

  • Прогноз погоды в Тайлае
  • Монитор погоды в Тайлае

АРХИВ ПОГОДЫ в Тайлае

Время (UTC), дата Ветер
(напр.,м/с)
 
Видим.   Явления Облачность Т
(С)
Тd
(С)
f
(%)
Тe
(С)
Тes
(С)
Комфортность P
(гПа)
Po
(гПа)
Тmin
(С)
Tmax
(С)
R
(мм)
R24
(мм)
S
(см)
21 12.05 Ю 5 30 км в посл. час дождь н/о +9.6 +7.7 88 +6 +6 1003.5 985.5
00 13.05 ЮЗ 5 14 км 9/9 1500 м
[]
+10.9 +6.3 73 +8 +9 1004.1 986.1 1
03 13.05 Ю 6 17 км 9/9 1000 м
[]
+14.3 +3.7 49 +13 +13 1002.8 985.1
06 13.05 ЮЗ 6 23 км 9/9 1000 м
[]
+16.6 +2.6 39 +16 +16 1001.4 983.8 +9.5
09 13.05 ЮЗ 7 23 км 9/9 1000 м
[]
+16.3 +2.0 38 +15 +15 1000.2 982.6
12 13.05 ЮЗ 6 30 км 9/9 1000 м
[]
+12.8 +0.2 42 +11 +11 1001.6 983.8
18 13.05 Ю 2 30 км слаб. дождь ?/? +9.6 +5.4 75 +8 +8 1000.2 982.2 +18.2 0.2
21 13.05 ЮЗ 3 30 км н/о +9.2 +5.4 77 +7 +7 1000.8 982.8
00 14.05 З 4 30 км 9/9 1000 м
[]
+11.3 +4.3 62 +9 +10 1002.0 984.1 0.1
03 14.05 СЗ 5 30 км 8/8 1000 м
[]
+14.9 +3.1 45 +14 +15 1003.1 985.4
06 14.05 З 5 30 км 4/4 1000 м
[]
+18.3 +1.3 32 +18 +22 1004.1 986.6 +8.8
09 14.05 Ю 3 30 км 4/4 1000 м
[]
+19.4 +1.4 30 +20 +21 1004.2 986.8
12 14.05 Ю 3 30 км ясно +16.1 +1.8 38 +16 +16 1004.9 987.2
18 14.05 Ю 2 30 км ?/? +14.7 +4.7 51 +15 +15 1004.0 986.3 +19.8
21 14.05 ЮВ 2 30 км н/о +13.0 +5.4 60 +12 +12 1002.8 985.0
00 15.05 Ю 4 17 км ясно +17.1 +4.8 44 +17 +22 1002.0 984.5
03 15.05 Ю 4 17 км 3/3
[]
+21.3 +6.4 38 +22 +30 комфорт 1000.4 983.1
06 15.05 Ю 6 20 км 3/3
[]
+25.9 +6.5 29 +26 +29 жарко 997.2 980.3 +12.8
09 15.05 ЮЗ 4 19 км 10/10 1500 м
[]
+27.5 +5.1 24 +26 +26 жарко 993.6 976.8
12 15.05 Ю 4
{27}
29 км слаб. дождь 8/8 1000 м
[]
+16.8 +11.3 70 +16 +16 995.4 978.0 3
18 15.05 З 4 2200 м мгла ?/? +17.1 +6.6 50 +17 +17 995.7 978.3 +27.5 9
21 15.05 З 6 6000 м мгла н/о +14.0 +1.0 41 +12 +12 997.1 979.5
00 16.05 З 12 30 км ясно +15.2 -0.5 34 +13 +13 998.1 980.5 9
03 16.05 З 12 9000 м ясно +19.4 -5.5 18 +18 +18 997.7 980.4
06 16.05 З 8
{20}
11 км 5/5
[]
+22.7 -6.2 14 +21 +22 комфорт 997.7 980.6 +12.5
09 16.05 З 7
{20}
30 км 4/4 1500 м
[]
+23.8 -5.3 14 +22 +22 комфорт 996.8 979.7
12 16.05 З 3 28 км ясно +18.8 -0.6 27 +19 +19 998.1 980.7
18 16.05 Ю 1 30 км ?/? +10.6 +1.7 54 +11 +11 1001.5 983.6 +24.0
21 16.05 Ю 3 30 км н/о +12.5 +0.3 43 +11 +11 1003.1 985.3
00 17.05 З 3 30 км 9/9 1000 м
[]
+15.5 -1.5 31 +15 +16 1005.5 987.8
03 17.05 Ю 5 30 км 8/8 1500 м
[]
+19.6 +0.6 28 +20 +21 1003.3 985.9
06 17.05 Ю 8 30 км 6/6 1000 м
[]
+25.5 +1.6 21 +24 +25 комфорт 999.9 982.9 +9.0
09 17.05 ЮЗ 8 30 км 3/3 1000 м
[]
+25.9 +4.4 25 +25 +25 комфорт 999.8 982.8
12 17.05 ЮЗ 6 17 км 3/3 1500 м
[]
+22.8 +12.7 53 +26 +26 жарко 1001.4 984.2
18 17.05 С 1 30 км ?/? +14.3 -1.7 33 +15 +15 1006.2 988.4 +26.5
21 17.05 Ю 1 30 км н/о +13.9 +3.1 48 +14 +14 1008.1 990.3
00 18.05 С 3 30 км 10/10 1500 м
[]
+14.3 +3.2 47 +14 +14 1010.3 992.4
03 18.05 Ю 1 30 км {дождь} 9/9 1500 м
[]
+14.7 +4.7 51 +15 +17 1010.7 992.9
06 18.05 Ю 5 30 км {дождь} 8/8
[]
+17.9 +4.5 41 +18 +19 1009.1 991.5 +12.5
09 18.05 ЮЗ 6 30 км 6/6
[]
+19.2 +3.4 35 +19 +20 1008.1 990.6
12 18.05 ЮЗ 3 30 км 9/9 1500 м
[]
+16.2 +8.2 59 +16 +16 1009.6 991.9
18 18.05 Ю 4 30 км ?/? +14.2 +8.2 67 +13 +13 1010.2 992.3 +20.0
21 18.05 З 5 29 км н/о +14.8 +0.3 37 +14 +14 1010.5 992.7
00 19.05 В 1 12 км 10/10
[]
+9.7 +6.8 82 +9 +9 1010.7 992.5 2
03 19.05 СВ 3 30 км слаб. дождь 10/10
[]
+9.7 +6.8 82 +7 +7 1007.7 989.6
06 19.05 В 4 10 км слаб. дождь 10/10 1500 м
[]
+9.3 +6.6 83 +6 +6 1004.2 986.1 +9.2 4
09 19.05 СВ 6 7000 м дождь 10/10 1500 м
[]
+8.9 +7.5 91 +5 +5 998.8 980.8
12 19.05 С 7 н/о дождь 10/10 1500 м
[]
+9.0 +7.9 93 +5 +5 995.8 977.9 27
18 19.05 В 4 30 км ?/? +9.2 +8.1 93 +6 +6 983.2 965.5 +17.1 8

 

Местоположение метеостанции Тайлай (Хэйлунцзян, Китай): широта 46.40 долгота 123.41 высота над уровнем моря 150 м.

В архиве по умолчанию представлена погода в Тайлае за последнюю неделю. Архивные данные за месяц целиком и за предыдущие месяцы, начиная с января 2011 года, Вы можете получить, выбрав интересующий диапазон дат из раскрывающегося списка и нажав кнопку "Ввод!".


*Определитесь, кто Вы:
робот инопланетянин человек

Внимание! Время в таблицах - всемирное. Для получения местного времени необходимо прибавить поправку, которая равна 8 ч.

Смотрите также архив погоды в соседних городах и на ближайших метеорологических станциях:

Погода в Цицикаре (Хэйлунцзян, Китай) (115 км)
Погода в Аньда (Хэйлунцзян, Китай) (146 км)
Погода в Цянь Горлос (Гирин, Китай) (185 км)
Погода в Чанлине (Гирин, Китай) (243 км)
Погода в Кэшане (Хэйлунцзян, Китай) (262 км)
Погода в Харбине (Хэйлунцзян, Китай) (268 км)
Погода в Аршане (Внутренняя Монголия, Китай) (279 км)
Погода в Джаруд-Ци (Внутренняя Монголия, Китай) (282 км)
Погода в Ксиджоу (Внутренняя Монголия, Китай) (287 км)
Погода в Хайлуне (Хэйлунцзян, Китай) (293 км)

Пояснения к столбцам:

Ветер - указаны скорость ветра в м/с - средняя за 10 мин, порывы в срок и между сроками (в фигурных скобках) и направление, откуда дует ветер: С - северный, СВ - северо-восточный, В - восточный, ЮВ - юго-восточный, Ю - южный, ЮЗ - юго-западный, З - западный, СЗ - северо-западный.
Видимость - горизонтальная дальность видимости в метрах или километрах. При видимости от 1 до 10 км при отсутствии осадков обычно наблюдается дымка, при ухудшении видимости до 1 км и менее - туман. В сухую погоду видимость может ухудшаться дымом, пылью или мглою.
Явления - указаны атмосферные явления, наблюдавшиеся в срок или в последний час перед сроком; фигурными скобками обозначены явления, наблюдавшиеся между сроками (за 1-3 часа до срока); квадратными скобками обозначены град или гололедные отложения с указанием их диаметра в мм.
Облачность - указаны через наклонную черту общая и нижняя облачность в баллах и высота нижней границы облаков в метрах; квадратными скобками обозначены формы облаков: Ci - перистые, Cs - перисто-слоистые, Cc - перисто-кучевые, Ac - высококучевые, As - высокослоистые, Sc - слоисто-кучевые, Ns - слоисто-дождевые, Cu - кучевые, Cb - кучево-дождевые. Подробнее классификацию облаков см. в Атласе облаков (PDF).
T - Температура воздуха - температура, измеренная на высоте 2 м над землей.
Td - Температура точки росы - температура, при понижении до которой содержащийся в воздухе водяной пар достигнет насыщения.
f - Относительная влажность воздуха - влажноcть воздуха, измеренная на высоте 2 м над землей.
Te - Эффективная температура - температура, которую ощущает одетый по сезону человек в тени. Характеристика душности погоды. При расчете учитывается влияние влажности воздуха и скорости ветра на теплоощущения человека.
Tes - Эффективная температура на солнце - температура, которую ощущает человек, с поправкой на солнечный нагрев. Характеристика знойности погоды. Зависит от высоты солнца над горизонтом, облачности и скорости ветра. Ночью, в пасмурную погоду, а также при ветре 12 м/с и более поправка равна нулю.
P - Атмосферное давление - приведенное к уровню моря атмосферное давление.
Po - Атмосферное давление - измеренное на уровне метеостанции атмосферное давление.
Tmin - Минимальная температура - минимум температуры воздуха на высоте 2 м над землей.
Tmax - Максимальная температура - максимум температуры воздуха на высоте 2 м над землей.
R - Количество осадков - Количество выпавших осадков за период времени, мм. При наведении курсора мыши на число - период времени, за который выпало указанное количество осадков.
R24 - Количество осадков - Количество выпавших осадков за 24 часа, мм.
S - Снежный покров - Высота снежного покрова, см. При наведении курсора мыши на число - состояние снежного покрова и степень покрытия местности в баллах.